Regional Weather Roundup
Issued by NWS Wakefield, VA

Home | Current Version | Previous Version | Text Only | Print | Product List | Glossary On
Versions: 1 2 3 4 5 6 7 8 9 10 11 12 13 14 15 16 17 18 19 20 21 22 23 24 25 26 27 28 29 30 31 32 33 34 35 36 37 38 39 40 41 42 43 44 45 46 47 48 49 50
000
ASUS41 KAKQ 220115
RWRAKQ

REGIONAL WEATHER ROUNDUP
NATIONAL WEATHER SERVICE WAKEFIELD VA
900 PM EDT SAT APR 21 2018

Note: "fair" indicates few or no clouds below 12,000 feet with no
significant weather and/or obstructions to visibility. * = Denotes
station may not report precipitation (e.g., rain,snow,etc.),
thunder or fog.

VAZ042-051-052>054-056-220200-
NORTHERN VIRGINIA

CITY           SKY/WX    TMP DP  RH WIND       PRES   REMARKS
WASH NATIONAL  MOCLDY    58  26  29 SW3       30.37R
DULLES         MOCLDY    51  29  42 NE6       30.36R
FORT BELVOIR   FAIR      51  29  43 CALM      30.36R
QUANTICO       FAIR      57  44  62 CALM      30.37R
FREDERICKSBRG* FAIR      57  34  41 E5        30.35R
STAFFORD*      FAIR      52  35  51 CALM      30.39R
WARRENTON      FAIR      47  35  62 CALM      30.35R
CULPEPER*      FAIR      50  33  51 CALM      30.36R
MANASSAS*      FAIR      50  35  56 CALM      30.36R
LEESBURG*      FAIR      55  32  41 E3        30.37R
WINCHESTER     FAIR      45  30  57 CALM      30.36R
FRONT ROYAL*   FAIR      52  30  43 CALM      30.33R
LURAY*         FAIR      52  32  46 N3        30.33R
$$

VAZ048-049-060>072-079>083-220200-
CENTRAL AND SOUTH CENTRAL VIRGINIA

CITY           SKY/WX    TMP DP  RH WIND       PRES   REMARKS
RICHMOND       MOCLDY    54  34  46 SE12      30.36R
CHESTERFIELD*  FAIR      56  33  42 CALM      30.35R
PETERSBURG*    FAIR      47  37  70 E3        30.36R
HANOVER        FAIR      52  34  50 CALM      30.36R
TAPPAHANNOCK*  FAIR      51  37  60 E5        30.38R
QUINTON*       FAIR      52  35  51 E8        30.36R
CHARLOTTSVILLE FAIR      62  28  27 SE3       30.32R
GORDONSVILLE*  FAIR      55  37  49 CALM      30.33S
ORANGE*        FAIR      52  41  66 CALM      30.34R
LOUISA*        FAIR      51  36  56 E3        30.38R
BUMPASS*       FAIR      55  32  41 CALM      30.34S
FARMVILLE*     FAIR      58  28  32 CALM      30.32R
CREWE*         FAIR      51  38  62 CALM      30.34R
FORT PICKETT*  FAIR      55  33  43 CALM      30.34S
CHASE CITY*    FAIR      50  37  60 E3        30.34R
CLARKSVILLE*   FAIR      55  36  47 E5        30.33S
SOUTH HILL*    FAIR      50  37  62 CALM      30.40S
LAWRENCEVILLE* FAIR      52  36  54 CALM      30.34S
EMPORIA*       FAIR      50  39  66 CALM      30.37R
$$

VAZ088>098-220200-
SOUTHEAST VIRGINIA

CITY           SKY/WX    TMP DP  RH WIND       PRES   REMARKS
NORFOLK        FAIR      50  35  56 SE5       30.38F
VIRGINIA BEACH FAIR      45  39  79 E5        30.39S
NORFOLK NAVAL  FAIR      49  33  54 SE5       30.40S
WEST POINT*    FAIR      49  34  58 SE6       30.39S
SALUDA*        FAIR      47  36  64 CALM      30.39R
NEWPORT NEWS   FAIR      46  37  71 E3        30.39R
LANGLEY AFB    FAIR      51  37  58 SE5       30.39S
FORT EUSTIS    FAIR      51  36  56 SE6       30.36S
WILLIAMSBURG*  FAIR      52  37  58 CALM      30.39S
HR EXEC AP*    FAIR      44  37  76 E3        30.40R
FRANKLIN*      FAIR      52  39  62 E7        30.38R
US460-WAKEFLD  FAIR      52  38  58 E3        30.37R
$$

VAZ020-022-025-037-045-220200-
WEST CENTRAL AND SOUTHWEST VIRGINIA

CITY           SKY/WX    TMP DP  RH WIND       PRES   REMARKS
STAUNTON*      FAIR      55  30  37 SE3       30.34R
WAYNESBORO*    FAIR      56  29  34 SE6       30.32S
HOT SPRINGS VA FAIR      49  20  32 S7        30.32S
LYNCHBURG      FAIR      53  31  42 CALM      30.32R
DANVILLE       FAIR      56  34  43 E3        30.32R
SOUTH BOSTON*  FAIR      56  32  39 SE3       30.33R
MARTINSVILLE   FAIR      53  32  44 CALM      30.33S
ROANOKE        FAIR      57  30  35 SE6       30.32R
BLACKSBURG     FAIR      57  30  35 SE7       30.34R
DUBLIN*        FAIR      55  33  42 SW6       30.32R
MARION*        FAIR      57  33  39 NE5       30.32R
HILLSVILLE*    FAIR      54  28  37 S3        30.31R
RICHLANDS*     FAIR     N/A N/A N/A CALM      30.28S
WISE*          FAIR      59  30  33 N5        30.29R
ABINGDON*      FAIR      59  30  33 CALM      30.26R
$$

MDZ021>025-VAZ099-100-220200-
SOUTHERN MARYLAND AND THE DELMARVA PENINSULA

CITY           SKY/WX    TMP DP  RH WIND       PRES   REMARKS
PATUXENT RIVER FAIR      51  35  54 SE6       30.37R
BAY BRIDGE APT FAIR      50  37  62 CALM      30.37R
LEONARDTOWN    FAIR      50  36  57 SE5       30.39R
DOVER          MOCLDY    49  35  58 SE5       30.36R
GEORGETOWN     FAIR      48  37  65 CALM      30.38R
EASTON         PTCLDY    50  32  50 CALM      30.41R
CAMBRIDGE      CLEAR     48  37  66 CALM      30.38R
SALISBURY      FAIR      46  39  76 NW6       30.38R
TANGIER        FAIR      52  37  58 SE7       30.38S
OCEAN CITY     FAIR      47  41  80 S7        30.39S
WALLOPS ISLAND FAIR      48  41  76 SW9       30.40R
ACCOMACK*      FAIR      45  40  82 SE5       30.40R
$$

NCZ012>017-030>032-220200-
NORTH CENTRAL AND EASTERN NORTH CAROLINA

CITY           SKY/WX    TMP DP  RH WIND       PRES   REMARKS
ROANOKE RAPIDS FAIR      52  37  58 CALM      30.35S
RALEIGH        MOCLDY    57  38  48 E5        30.34R
ELIZABETH CITY FAIR      49  39  68 SE6       30.40R
AHOSKIE*       FAIR      54  43  66 SE5       30.37R
EDENTON*       FAIR      53  45  75 SE7       30.40R
CURRITUCK*     NOT AVBL
KILL DEVIL HLS FAIR      46  37  68 CALM      30.40R
MANTEO         FAIR      46  38  72 SE3       30.42R
CAPE HATTERAS  FAIR      50  41  71 NE7       30.41R
TARBORO*       NOT AVBL
GOLDSBORO      FAIR      59  40  49 SE5       30.34R
WASHINGTON     FAIR      55  43  65 SE8       30.39R
GREENVILLE     FAIR      59  41  51 SE8       30.37R
NEW BERN       FAIR      53  40  61 S5        30.39R
WILMINGTON     FAIR      57  43  59 E5        30.37R
$$

VAZ048-220200-
ELSEWHERE

CITY           SKY/WX    TMP DP  RH WIND       PRES   REMARKS
HARRISBURG PA  MOCLDY    52  31  44 CALM      30.34R
BALTIMORE      MOCLDY    52  31  44 CALM      30.36R
ANNAPOLIS      FAIR      53  37  54 CALM      30.37R
ANDREWS AFB    CLOUDY    51  32  47 CALM      30.36R
PHILADELPHIA   MOCLDY    55  31  39 SW9       30.35R
HENDERSON NC   FAIR      53  32  44 E3        30.34R
GREENSBORO     FAIR      59  33  37 SE6       30.31R
ROCKY MOUNT    FAIR      52  42  69 CALM      30.35R
$$

VAZ100-220200-
MARINE

STATION/POSITION TIME  TEMP    WIND        PRES    WAVE   SWELL
                       AIR SEA DIR/SP/G            HT/PER HT/PER
                 (UTC) (F)     (DEG/KT/KT) (MB)    (FT/S) (FT/S)
BRANDYWINE LGT   0048          190/ 16/ 17   N/A
CAPE MAY NJ      0048   47 50  180/  7/ 10 1028.1R
LEWES DE         0048   48 51  180/  5/  9 1028.5R
15NM E FENWICK I 0050   45 47  190/ 10/ 12 1029.5R   2/ 3
OCEAN-CITY-INLET 0048   48 53  210/ 12/ 16 1029.5R
WACHAPREAGUE VA  0048   49 60  200/  8/ 10 1029.5R
THOMAS POINT MD  0100   52 51  190/  5/  5 1029.4R
GOOSES REEF MD   0050   51     170/ 10/ 12 1028.8R
COVE POINT MD    0048   51     190/ 11/ 13 1029.2R
SOLOMONS ISLAND  0048   50 53  130/  5/  5 1028.2R
BISHOPS HEAD MD  0048   52 57  190/  7/  8 1029.1R
PINEY POINT MD   0048          190/ 10/ 11   N/A
POTOMAC MD       0050   52     170/ 10/ 12 1030.0R
CAMBRIDGE MD     0048   52 56              1029.3R
LEWISETTA VA     0048   52 55  190/  9/ 10 1028.6R
RAPPAHANNOCK LGT 0048          150/ 11/ 12 1029.8R
YORK RVR RNG VA  0048   52     160/ 13/ 15 1029.5S
YORKTOWN VA      0048   51 57  150/  4/  5 1028.6S
DOMINION TERM VA 0048   53     150/  8/ 12 1029.2R
KIPTOPEKE VA     0048      55  160/  9/ 12   N/A
CAPE HENRY VA    0048   48     150/  6/  8   N/A
WILLOUBY STN VA  0048   51     110/  7/  8 1029.0R
S CRANEY ISL VA  0048   52     140/  8/ 10 1028.9R
CAPE HENRY BUOY  0030      50                N/A     2/ 5
64NM E OF VA BCH 0050   48 49  100/  8/ 10 1030.1S   2/ 6   2/ 6
DUCK PIER NC     0048   49 53  100/  8/  9 1029.1R
44100 DUCK FRF   0045      50                N/A     2/ 6
44056 DUCK FRF   0030      52                N/A     2/ 6
OREGON INLET NC  0048           80/  6/  9   N/A
HATTERAS NC      0048   52 62   70/  7/ 12 1029.4R
DIAMOND SHLS NC  0050   58      20/ 12/ 16   N/A     3/ 7   3/ 7
CAPE LOOKOUT NC  0000           90/ 11/ 12 1028.6R
$$



USA.gov is the U.S. government's official web portal to all federal, state and local government web resources and services.